Tracking 19706 objects as of 16-Jun-2019
HD Live streaming from Space Station
objects crossing your sky now

COSMOS 1633

Track COSMOS 1633 now!
10-day predictions
COSMOS 1633 is classified as:


NORAD ID: 15592
Int'l Code: 1985-020A
Perigee: 471.9 km
Apogee: 491.9 km
Inclination: 82.5 °
Period: 94.1 minutes
Semi major axis: 6852 km
RCS: 7.2924 m2 (large)
Launch date: March 5, 1985
Source: Commonwealth of Independent States (former USSR) (CIS)
Launch site: PLESETSK MISSILE AND SPACE COMPLEX (PKMTR)
aabbcc
Your satellite tracking list
Your tracking list is empty




NASA's NSSDC Master Catalog

Two Line Element Set (TLE):
1 15592U 85020A   19166.86399445 +.00000865 +00000-0 +28110-4 0  9993
2 15592 082.5375 308.0846 0014590 113.5813 246.6962 15.30343429875395
Source of the keplerian elements: AFSPC